Zurück zum Katalog

LEMUR 2 NEUROSPICY

AktivWetterSSO
NORAD 63355·PAYLOAD·🇺🇸 United States

Gestartet Mar 26, 2025 von Rocket Lab Launch Complex 1

Loading…

Nächste Überflüge (nächste 24 Stunden)

TLE

AktuellSource: Space-Track

Epoche: Sep 14, 2026, 08:59 UTC

1 63355U 25061E   26257.37455609  .00002966  00000-0  16315-3 0  9999
2 63355  97.5730 232.5794 0015393 316.4951  43.5066 15.14764253 81110

Verfolge LEMUR 2 NEUROSPICY in Echtzeit mit AllMySat

Download on the App Store